| time (UTC) | temp F | wind direction | speed knots | gust knots | rain 1hr in | rain 24hr in | rain mn in | humidity % | barometer mb |
| 20260506024803 | 65 | 124 | 0.0 | 2.6 | 0.00 | 0.00 | 0.00 | 56 | 1007.3 |
| 20260506023803 | 66 | 77 | 0.0 | 1.7 | 0.00 | 0.00 | 0.00 | 52 | 1007.3 |
| 20260506023303 | 67 | 249 | 0.0 | 1.7 | 0.00 | 0.00 | 0.00 | 55 | 1007.3 |
| 20260506022305 | 67 | 178 | 0.9 | 1.7 | 0.00 | 0.00 | 0.00 | 51 | 1007.4 |
| 20260506021803 | 68 | 182 | 0.0 | 1.7 | 0.00 | 0.00 | 0.00 | 50 | 1007.5 |
| 20260506021303 | 68 | 191 | 0.0 | 1.7 | 0.00 | 0.00 | 0.00 | 49 | 1007.4 |
| 20260506020804 | 69 | 201 | 0.0 | 0.9 | 0.00 | 0.00 | 0.00 | 49 | 1007.5 |
| 20260506020303 | 69 | 175 | 0.0 | 2.6 | 0.00 | 0.00 | 0.00 | 49 | 1007.4 |
| 20260506015804 | 69 | 171 | 0.0 | 2.6 | 0.00 | 0.00 | 0.00 | 47 | 1007.4 |
| 20260506015306 | 69 | 137 | 1.7 | 2.6 | 0.00 | 0.00 | 0.00 | 47 | 1007.4 |
| 20260506014803 | 70 | 141 | 0.9 | 2.6 | 0.00 | 0.00 | 0.00 | 47 | 1007.3 |
| 20260506013804 | 70 | 110 | 0.0 | 2.6 | 0.00 | 0.00 | 0.00 | 47 | 1007.3 |
| 20260506013303 | 70 | 176 | 1.7 | 2.6 | 0.00 | 0.00 | 0.00 | 46 | 1007.2 |
| 20260506012803 | 71 | 228 | 0.0 | 2.6 | 0.00 | 0.00 | 0.00 | 46 | 1007.2 |
| 20260506012307 | 71 | 164 | 0.9 | 2.6 | 0.00 | 0.00 | 0.00 | 45 | 1007.1 |
| 20260506011803 | 71 | 156 | 0.9 | 1.7 | 0.00 | 0.00 | 0.00 | 45 | 1007.0 |
| 20260506011303 | 71 | 144 | 0.0 | 7.8 | 0.00 | 0.00 | 0.00 | 44 | 1006.9 |
| 20260506010304 | 72 | 157 | 1.7 | 5.2 | 0.00 | 0.00 | 0.00 | 45 | 1006.7 |
| 20260506005803 | 72 | 158 | 0.9 | 2.6 | 0.00 | 0.00 | 0.00 | 43 | 1006.6 |
| 20260506005305 | 72 | 147 | 0.9 | 2.6 | 0.00 | 0.00 | 0.00 | 44 | 1006.6 |
| 20260506004803 | 72 | 122 | 0.9 | 2.6 | 0.00 | 0.00 | 0.00 | 43 | 1006.5 |
| 20260506004303 | 72 | 240 | 0.0 | 4.3 | 0.00 | 0.00 | 0.00 | 44 | 1006.5 |
| 20260506003304 | 72 | 175 | 1.7 | 6.1 | 0.00 | 0.00 | 0.00 | 42 | 1006.3 |
| 20260506002803 | 73 | 135 | 0.0 | 6.1 | 0.00 | 0.00 | 0.00 | 41 | 1006.2 |
| 20260506002305 | 73 | 172 | 0.9 | 2.6 | 0.00 | 0.00 | 0.00 | 41 | 1006.1 |
| 20260506001803 | 73 | 143 | 1.7 | 4.3 | 0.00 | 0.00 | 0.00 | 40 | 1006.1 |
| 20260506001303 | 73 | 148 | 1.7 | 4.3 | 0.00 | 0.00 | 0.00 | 41 | 1006.0 |
| 20260506000803 | 73 | 190 | 2.6 | 4.3 | 0.00 | 0.00 | 0.00 | 40 | 1006.0 |
| 20260505235803 | 74 | 163 | 1.7 | 7.0 | 0.00 | 0.00 | 0.00 | 40 | 1006.0 |
| 20260505235305 | 74 | 217 | 2.6 | 10.4 | 0.00 | 0.00 | 0.00 | 39 | 1006.0 |
| 20260505234804 | 74 | 151 | 3.5 | 10.4 | 0.00 | 0.00 | 0.00 | 40 | 1006.0 |
| 20260505234303 | 74 | 182 | 1.7 | 10.4 | 0.00 | 0.00 | 0.00 | 39 | 1006.0 |
| 20260505233303 | 74 | 163 | 2.6 | 10.4 | 0.00 | 0.00 | 0.00 | 39 | 1006.0 |
| 20260505232804 | 74 | 143 | 3.5 | 7.0 | 0.00 | 0.00 | 0.00 | 39 | 1006.0 |
| 20260505232305 | 74 | 185 | 1.7 | 7.0 | 0.00 | 0.00 | 0.00 | 40 | 1006.0 |
| 20260505231803 | 74 | 135 | 2.6 | 7.0 | 0.00 | 0.00 | 0.00 | 39 | 1005.9 |
| 20260505231303 | 74 | 125 | 2.6 | 7.8 | 0.00 | 0.00 | 0.00 | 40 | 1006.0 |
| 20260505230803 | 74 | 158 | 2.6 | 10.4 | 0.00 | 0.00 | 0.00 | 39 | 1006.0 |
| 20260505230303 | 74 | 184 | 3.5 | 10.4 | 0.00 | 0.00 | 0.00 | 39 | 1006.0 |
| 20260505225803 | 74 | 172 | 2.6 | 10.4 | 0.00 | 0.00 | 0.00 | 40 | 1006.0 |
| 20260505225305 | 74 | 152 | 2.6 | 7.8 | 0.00 | 0.00 | 0.00 | 40 | 1006.0 |
| 20260505224804 | 74 | 206 | 1.7 | 7.8 | 0.00 | 0.00 | 0.00 | 40 | 1006.0 |
| 20260505224304 | 74 | 175 | 1.7 | 7.8 | 0.00 | 0.00 | 0.00 | 40 | 1006.0 |
| 20260505222803 | 74 | 133 | 1.7 | 15.6 | 0.00 | 0.00 | 0.00 | 40 | 1005.9 |
| 20260505221804 | 74 | 177 | 2.6 | 13.9 | 0.00 | 0.00 | 0.00 | 41 | 1005.9 |
| 20260505221303 | 74 | 167 | 4.3 | 13.9 | 0.00 | 0.00 | 0.00 | 40 | 1005.9 |
| 20260505220804 | 74 | 164 | 5.2 | 13.9 | 0.00 | 0.00 | 0.00 | 40 | 1005.8 |
| 20260505220303 | 74 | 159 | 4.3 | 13.9 | 0.00 | 0.00 | 0.00 | 41 | 1005.9 |
| 20260505215803 | 74 | 211 | 1.7 | 10.4 | 0.00 | 0.00 | 0.00 | 40 | 1005.8 |
| 20260505215305 | 74 | 124 | 4.3 | 10.4 | 0.00 | 0.00 | 0.00 | 40 | 1005.7 |
| 20260505214804 | 74 | 173 | 2.6 | 10.4 | 0.00 | 0.00 | 0.00 | 40 | 1005.8 |
| 20260505214304 | 74 | 180 | 2.6 | 10.4 | 0.00 | 0.00 | 0.00 | 40 | 1005.8 |
| 20260505213303 | 75 | 169 | 2.6 | 10.4 | 0.00 | 0.00 | 0.00 | 39 | 1005.8 |
| 20260505212803 | 75 | 134 | 4.3 | 17.4 | 0.00 | 0.00 | 0.00 | 39 | 1005.8 |
| 20260505212305 | 75 | 158 | 4.3 | 17.4 | 0.00 | 0.00 | 0.00 | 39 | 1005.7 |
| 20260505211803 | 75 | 155 | 5.2 | 12.2 | 0.00 | 0.00 | 0.00 | 38 | 1005.6 |
| 20260505211303 | 75 | 186 | 5.2 | 12.2 | 0.00 | 0.00 | 0.00 | 38 | 1005.6 |
| 20260505205305 | 75 | 196 | 2.6 | 14.8 | 0.00 | 0.00 | 0.00 | 39 | 1005.5 |
| 20260505204804 | 76 | 160 | 4.3 | 14.8 | 0.00 | 0.00 | 0.00 | 38 | 1005.4 |
| 20260505204304 | 76 | 190 | 7.0 | 12.2 | 0.00 | 0.00 | 0.00 | 38 | 1005.4 |
| 20260505203803 | 76 | 215 | 2.6 | 15.6 | 0.00 | 0.00 | 0.00 | 38 | 1005.4 |
| 20260505203304 | 76 | 131 | 3.5 | 18.2 | 0.00 | 0.00 | 0.00 | 37 | 1005.3 |
| 20260505202804 | 77 | 181 | 5.2 | 18.2 | 0.00 | 0.00 | 0.00 | 38 | 1005.4 |
| 20260505201803 | 76 | 163 | 3.5 | 22.6 | 0.00 | 0.00 | 0.00 | 38 | 1005.3 |
| 20260505201303 | 77 | 165 | 5.2 | 22.6 | 0.00 | 0.00 | 0.00 | 37 | 1005.3 |
| 20260505195803 | 78 | 137 | 6.1 | 13.9 | 0.00 | 0.00 | 0.00 | 36 | 1005.4 |
| 20260505195305 | 78 | 198 | 5.2 | 13.9 | 0.00 | 0.00 | 0.00 | 36 | 1005.4 |
| 20260505194803 | 78 | 214 | 3.5 | 12.2 | 0.00 | 0.00 | 0.00 | 38 | 1005.3 |
| 20260505193803 | 77 | 162 | 7.0 | 13.9 | 0.00 | 0.00 | 0.00 | 38 | 1005.4 |
| 20260505193304 | 77 | 182 | 6.1 | 13.9 | 0.00 | 0.00 | 0.00 | 38 | 1005.4 |
| 20260505192803 | 77 | 270 | 2.6 | 21.7 | 0.00 | 0.00 | 0.00 | 39 | 1005.3 |
| 20260505192305 | 78 | 166 | 5.2 | 21.7 | 0.00 | 0.00 | 0.00 | 39 | 1005.5 |
| 20260505191803 | 77 | 152 | 7.8 | 21.7 | 0.00 | 0.00 | 0.00 | 39 | 1005.5 |
| 20260505191303 | 77 | 146 | 4.3 | 13.9 | 0.00 | 0.00 | 0.00 | 37 | 1005.7 |
| 20260505190803 | 77 | 163 | 4.3 | 13.9 | 0.00 | 0.00 | 0.00 | 36 | 1005.8 |
| 20260505190304 | 77 | 182 | 5.2 | 15.6 | 0.00 | 0.00 | 0.00 | 35 | 1005.9 |
| 20260505185804 | 78 | 167 | 4.3 | 15.6 | 0.00 | 0.00 | 0.00 | 36 | 1005.9 |
| 20260505185305 | 77 | 228 | 4.3 | 15.6 | 0.00 | 0.00 | 0.00 | 37 | 1005.9 |
| 20260505184803 | 78 | 197 | 4.3 | 18.2 | 0.00 | 0.00 | 0.00 | 39 | 1005.9 |
| 20260505183803 | 76 | 138 | 2.6 | 13.9 | 0.00 | 0.00 | 0.00 | 41 | 1006.1 |
| 20260505183304 | 76 | 210 | 6.1 | 13.9 | 0.00 | 0.00 | 0.00 | 38 | 1006.1 |
| 20260505182803 | 76 | 122 | 5.2 | 13.9 | 0.00 | 0.00 | 0.00 | 39 | 1006.0 |
| 20260505182306 | 77 | 189 | 7.8 | 13.9 | 0.00 | 0.00 | 0.00 | 38 | 1006.2 |
| 20260505181803 | 77 | 132 | 5.2 | 13.9 | 0.00 | 0.00 | 0.00 | 38 | 1006.2 |
| 20260505181304 | 76 | 141 | 5.2 | 13.9 | 0.00 | 0.00 | 0.00 | 41 | 1006.3 |
| 20260505180803 | 76 | 207 | 4.3 | 13.9 | 0.00 | 0.00 | 0.00 | 41 | 1006.4 |
| 20260505180304 | 76 | 133 | 5.2 | 12.2 | 0.00 | 0.00 | 0.00 | 40 | 1006.3 |
| 20260505175305 | 76 | 169 | 5.2 | 12.2 | 0.00 | 0.00 | 0.00 | 41 | 1006.4 |
| 20260505174804 | 76 | 152 | 5.2 | 12.2 | 0.00 | 0.00 | 0.00 | 41 | 1006.6 |
| 20260505173303 | 76 | 350 | 4.3 | 12.2 | 0.00 | 0.00 | 0.00 | 39 | 1006.5 |
| 20260505172802 | 76 | 185 | 3.5 | 11.3 | 0.00 | 0.00 | 0.00 | 40 | 1006.5 |
| 20260505172305 | 76 | 193 | 7.0 | 11.3 | 0.00 | 0.00 | 0.00 | 39 | 1006.4 |
| 20260505170802 | 76 | 197 | 4.3 | 17.4 | 0.00 | 0.00 | 0.00 | 40 | 1006.9 |
| 20260505170302 | 76 | 242 | 3.5 | 14.8 | 0.00 | 0.00 | 0.00 | 42 | 1006.8 |
| 20260505165305 | 75 | 198 | 4.3 | 21.7 | 0.00 | 0.00 | 0.00 | 45 | 1007.0 |
| 20260505164802 | 75 | 207 | 2.6 | 13.0 | 0.00 | 0.00 | 0.00 | 45 | 1006.9 |
| 20260505163303 | 74 | 176 | 5.2 | 10.4 | 0.00 | 0.00 | 0.00 | 44 | 1007.2 |
| 20260505162802 | 75 | 217 | 5.2 | 10.4 | 0.00 | 0.00 | 0.00 | 44 | 1007.3 |
| 20260505162305 | 75 | 174 | 4.3 | 8.7 | 0.00 | 0.00 | 0.00 | 46 | 1007.4 |
| 20260505161802 | 75 | 261 | 2.6 | 14.8 | 0.00 | 0.00 | 0.00 | 46 | 1007.4 |
| 20260505161302 | 74 | 147 | 5.2 | 14.8 | 0.00 | 0.00 | 0.00 | 46 | 1007.4 |
| 20260505160803 | 75 | 219 | 5.2 | 13.9 | 0.00 | 0.00 | 0.00 | 46 | 1007.5 |
| 20260505160303 | 74 | 285 | 2.6 | 13.0 | 0.00 | 0.00 | 0.00 | 47 | 1007.6 |
| 20260505153303 | 73 | 227 | 4.3 | 17.4 | 0.00 | 0.00 | 0.00 | 48 | 1008.1 |
| 20260505152802 | 73 | 220 | 2.6 | 8.7 | 0.00 | 0.00 | 0.00 | 50 | 1008.0 |
| 20260505152305 | 72 | 190 | 2.6 | 10.4 | 0.00 | 0.00 | 0.00 | 52 | 1008.0 |
| 20260505151802 | 72 | 192 | 2.6 | 14.8 | 0.00 | 0.00 | 0.00 | 53 | 1008.0 |
| 20260505151303 | 72 | 231 | 5.2 | 14.8 | 0.00 | 0.00 | 0.00 | 50 | 1008.0 |
| 20260505150302 | 72 | 220 | 6.1 | 11.3 | 0.00 | 0.00 | 0.00 | 50 | 1008.1 |
| 20260505140302 | 70 | 266 | 4.3 | 7.8 | 0.00 | 0.00 | 0.00 | 52 | 1008.3 |
| 20260505130303 | 65 | 123 | 0.9 | 2.6 | 0.00 | 0.00 | 0.00 | 62 | 1008.8 |
| 20260505124302 | 63 | 7 | 0.0 | 1.7 | 0.00 | 0.00 | 0.00 | 65 | 1008.8 |
| 20260505123803 | 62 | 126 | 0.0 | 2.6 | 0.00 | 0.00 | 0.00 | 66 | 1008.8 |
| 20260505123302 | 62 | 156 | 0.9 | 2.6 | 0.00 | 0.00 | 0.00 | 67 | 1008.9 |
| 20260505122305 | 61 | 103 | 0.9 | 2.6 | 0.00 | 0.00 | 0.00 | 68 | 1009.1 |
| 20260505121803 | 60 | 110 | 0.9 | 2.6 | 0.00 | 0.00 | 0.00 | 70 | 1009.1 |
| 20260505120803 | 59 | 132 | 0.9 | 4.3 | 0.00 | 0.00 | 0.00 | 71 | 1009.2 |
| 20260505120303 | 58 | 183 | 0.9 | 2.6 | 0.00 | 0.00 | 0.00 | 71 | 1009.0 |
| 20260505115803 | 57 | 49 | 0.9 | 2.6 | 0.00 | 0.00 | 0.00 | 75 | 1008.9 |
| 20260505114303 | 53 | 313 | 0.0 | 0.0 | 0.00 | 0.00 | 0.00 | 84 | 1009.1 |
| 20260505113803 | 51 | 313 | 0.0 | 0.0 | 0.00 | 0.00 | 0.00 | 85 | 1009.1 |
| 20260505112304 | 49 | 313 | 0.0 | 0.0 | 0.00 | 0.00 | 0.00 | 85 | 1008.9 |
| 20260505111802 | 49 | 313 | 0.0 | 0.0 | 0.00 | 0.00 | 0.00 | 85 | 1008.9 |
| 20260505111302 | 49 | 313 | 0.0 | 0.0 | 0.00 | 0.00 | 0.00 | 84 | 1008.9 |
| 20260505110302 | 48 | 313 | 0.0 | 0.9 | 0.00 | 0.00 | 0.00 | 84 | 1009.0 |
| 20260505101803 | 48 | 230 | 0.0 | 0.0 | 0.00 | 0.00 | 0.00 | 83 | 1008.6 |
| 20260505100803 | 48 | 230 | 0.0 | 0.0 | 0.00 | 0.00 | 0.00 | 83 | 1008.5 |
| 20260505100303 | 48 | 230 | 0.0 | 0.0 | 0.00 | 0.00 | 0.00 | 83 | 1008.5 |
| 20260505095803 | 48 | 230 | 0.0 | 0.0 | 0.00 | 0.00 | 0.00 | 83 | 1008.5 |
| 20260505095304 | 48 | 230 | 0.0 | 0.0 | 0.00 | 0.00 | 0.00 | 83 | 1008.4 |
| 20260505094803 | 48 | 230 | 0.0 | 0.0 | 0.00 | 0.00 | 0.00 | 83 | 1008.4 |
| 20260505094303 | 48 | 229 | 0.0 | 0.0 | 0.00 | 0.00 | 0.00 | 83 | 1008.3 |
| 20260505093802 | 49 | 188 | 0.0 | 0.9 | 0.00 | 0.00 | 0.00 | 83 | 1008.3 |
| 20260505093303 | 49 | 188 | 0.0 | 1.7 | 0.00 | 0.00 | 0.00 | 83 | 1008.3 |
| 20260505092305 | 49 | 160 | 0.0 | 1.7 | 0.00 | 0.00 | 0.00 | 83 | 1008.2 |
| 20260505091304 | 49 | 60 | 0.0 | 1.7 | 0.00 | 0.00 | 0.00 | 82 | 1008.3 |
| 20260505090803 | 49 | 63 | 0.0 | 1.7 | 0.00 | 0.00 | 0.00 | 81 | 1008.3 |
| 20260505090303 | 49 | 331 | 0.9 | 1.7 | 0.00 | 0.00 | 0.00 | 82 | 1008.4 |
| 20260505085304 | 49 | 317 | 0.0 | 0.0 | 0.00 | 0.00 | 0.00 | 81 | 1008.4 |
| 20260505084803 | 49 | 317 | 0.0 | 0.9 | 0.00 | 0.00 | 0.00 | 80 | 1008.4 |
| 20260505083803 | 49 | 317 | 0.9 | 0.9 | 0.00 | 0.00 | 0.00 | 80 | 1008.1 |
| 20260505083303 | 48 | 317 | 0.9 | 0.9 | 0.00 | 0.00 | 0.00 | 80 | 1008.3 |
| 20260505082803 | 48 | 317 | 0.0 | 0.9 | 0.00 | 0.00 | 0.00 | 80 | 1008.4 |
| 20260505081803 | 48 | 317 | 0.0 | 0.0 | 0.00 | 0.00 | 0.00 | 80 | 1008.5 |
| 20260505081303 | 48 | 317 | 0.0 | 0.0 | 0.00 | 0.00 | 0.00 | 79 | 1008.5 |
| 20260505080303 | 48 | 317 | 0.0 | 0.0 | 0.00 | 0.00 | 0.00 | 79 | 1008.5 |
| 20260505075304 | 48 | 317 | 0.0 | 1.7 | 0.00 | 0.00 | 0.00 | 79 | 1008.3 |
| 20260505074803 | 48 | 317 | 0.0 | 0.0 | 0.00 | 0.00 | 0.00 | 78 | 1008.1 |
| 20260505074303 | 48 | 317 | 0.0 | 1.7 | 0.00 | 0.00 | 0.00 | 78 | 1008.2 |
| 20260505073803 | 49 | 317 | 0.0 | 1.7 | 0.00 | 0.00 | 0.00 | 78 | 1008.2 |
| 20260505072803 | 49 | 317 | 0.0 | 0.0 | 0.00 | 0.00 | 0.00 | 78 | 1008.2 |
| 20260505072305 | 49 | 317 | 0.0 | 1.7 | 0.00 | 0.00 | 0.00 | 78 | 1008.2 |
| 20260505071803 | 49 | 317 | 0.0 | 1.7 | 0.00 | 0.00 | 0.00 | 78 | 1008.3 |
| 20260505071303 | 50 | 317 | 0.0 | 0.0 | 0.00 | 0.00 | 0.00 | 78 | 1008.3 |
| 20260505070803 | 50 | 317 | 0.0 | 0.0 | 0.00 | 0.00 | 0.00 | 78 | 1008.3 |
| 20260505064803 | 50 | 317 | 0.0 | 0.0 | 0.00 | 0.00 | 0.00 | 75 | 1008.4 |
| 20260505062803 | 51 | 317 | 0.0 | 0.9 | 0.00 | 0.00 | 0.00 | 76 | 1008.7 |
| 20260505061803 | 51 | 317 | 0.0 | 0.9 | 0.00 | 0.00 | 0.00 | 75 | 1008.7 |
| 20260505061303 | 51 | 317 | 0.0 | 0.9 | 0.00 | 0.00 | 0.00 | 75 | 1008.8 |
| 20260505060803 | 51 | 328 | 0.0 | 0.9 | 0.00 | 0.00 | 0.00 | 74 | 1008.8 |
| 20260505060303 | 51 | 311 | 0.0 | 0.9 | 0.00 | 0.00 | 0.00 | 73 | 1008.9 |
| 20260505055803 | 51 | 311 | 0.0 | 0.9 | 0.00 | 0.00 | 0.00 | 73 | 1008.9 |
| 20260505055304 | 51 | 311 | 0.0 | 1.7 | 0.00 | 0.00 | 0.00 | 75 | 1008.8 |
| 20260505054803 | 51 | 332 | 0.0 | 1.7 | 0.00 | 0.00 | 0.00 | 76 | 1008.7 |
| 20260505054303 | 51 | 146 | 0.0 | 1.7 | 0.00 | 0.00 | 0.00 | 74 | 1008.8 |
| 20260505053803 | 50 | 101 | 0.0 | 1.7 | 0.00 | 0.00 | 0.00 | 73 | 1008.8 |
| 20260505053303 | 50 | 256 | 0.0 | 0.9 | 0.00 | 0.00 | 0.00 | 74 | 1008.8 |
| 20260505052803 | 50 | 256 | 0.0 | 0.9 | 0.00 | 0.00 | 0.00 | 73 | 1008.9 |
| 20260505052304 | 50 | 256 | 0.0 | 1.7 | 0.00 | 0.00 | 0.00 | 73 | 1008.8 |
| 20260505051803 | 50 | 266 | 0.0 | 1.7 | 0.00 | 0.00 | 0.00 | 74 | 1008.7 |
| 20260505050803 | 50 | 220 | 0.0 | 1.7 | 0.00 | 0.00 | 0.00 | 75 | 1008.7 |
| 20260505050303 | 50 | 341 | 0.0 | 1.7 | 0.00 | 0.00 | 0.00 | 74 | 1008.7 |
| 20260505041303 | 52 | 340 | 0.9 | 0.9 | 0.00 | 0.00 | 0.00 | 70 | 1008.4 |
| 20260505040303 | 53 | 340 | 0.0 | 1.7 | 0.00 | 0.00 | 0.00 | 70 | 1008.4 |
| 20260505035803 | 53 | 340 | 0.0 | 1.7 | 0.00 | 0.00 | 0.00 | 69 | 1008.4 |
| 20260505034803 | 54 | 340 | 0.9 | 1.7 | 0.00 | 0.00 | 0.00 | 67 | 1008.4 |
| 20260505034303 | 55 | 346 | 0.9 | 1.7 | 0.00 | 0.00 | 0.00 | 67 | 1008.4 |
| 20260505033803 | 55 | 329 | 0.0 | 1.7 | 0.00 | 0.00 | 0.00 | 66 | 1008.4 |
| 20260505033303 | 56 | 342 | 0.0 | 1.7 | 0.00 | 0.00 | 0.00 | 64 | 1008.3 |
| 20260505032803 | 57 | 335 | 0.9 | 1.7 | 0.00 | 0.00 | 0.00 | 63 | 1008.3 |
| 20260505032304 | 57 | 337 | 0.9 | 1.7 | 0.00 | 0.00 | 0.00 | 62 | 1008.2 |
| 20260505031803 | 57 | 334 | 0.9 | 1.7 | 0.00 | 0.00 | 0.00 | 61 | 1008.4 |
| 20260505031303 | 58 | 355 | 0.0 | 1.7 | 0.00 | 0.00 | 0.00 | 60 | 1008.5 |
| 20260505030303 | 58 | 305 | 0.0 | 1.7 | 0.00 | 0.00 | 0.00 | 59 | 1008.5 |
| 20260505025803 | 59 | 222 | 0.0 | 1.7 | 0.00 | 0.00 | 0.00 | 58 | 1008.6 |